Location: Dotternhausen
(48.2273°N, 8.7933°E)
Time: 06:22:16
(UTC+00:00)

Daily predictions for brighter satellites

Satellite Brightness Start Highest point End
(mag) Time Altitude Azimuth Time Altitude Azimuth Time Altitude Azimuth
ARIANE 5 R/B 2.8 16:13:58 10° SE 16:18:40 44° ENE 16:23:24 10° N
Cosmos 1725 Rocket 4.1 16:12:35 10° S 16:18:46 67° E 16:25:02 10° NNE
Cosmos 2233 Rocket 4.3 16:14:29 10° SSE 16:20:28 48° E 16:26:31 10° NNE
Aureole 3 Rocket 4.3 16:28:49 10° E 16:29:17 10° E 16:29:44 10° ENE
Cosmos 2173 Rocket 4.4 16:23:08 10° SSW 16:29:18 70° W 16:35:27 10° N
SMAP 3.1 16:24:45 10° SSE 16:29:20 62° ENE 16:33:57 10° N
Cosmos 1441 Rocket 2.8 16:26:58 10° N 16:30:20 88° ENE 16:33:40 10° S
SAR-Lupe-5 4.3 16:28:52 10° NNE 16:31:30 79° W 16:34:06 10° SSW
Cosmos 1484 Rocket 3.8 16:31:13 10° S 16:34:35 46° W 16:38:00 10° NNW
USA 215 3.5 16:29:32 10° SE 16:36:04 76° SW 16:42:38 10° WNW
CORIOLIS 4.1 16:31:29 10° SSE 16:36:51 79° ENE 16:42:13 10° NNW
Cosmos 2082 Rocket 3.1 16:34:45 10° N 16:39:29 27° NE 16:44:12 10° ESE
Cosmos 1812 4.1 16:38:29 10° ESE 16:39:11 11° E 16:39:11 11° E
SL-08 R/B 4.4 16:33:45 10° S 16:39:49 77° E 16:45:55 10° NNE
Cosmos 1802 Rocket 4.3 16:34:50 10° SSW 16:41:17 79° W 16:47:44 10° N
Cosmos 1869 4.1 16:38:46 10° SE 16:41:39 24° E 16:44:33 10° NE
Landsat 7 3.8 16:37:51 10° SSE 16:42:24 60° ENE 16:47:01 10° N
AQUARIUS 4.3 16:38:15 10° SE 16:42:30 48° ENE 16:46:45 10° N
SPOT 1/Viking Rocket 4.2 16:39:02 10° SE 16:43:34 32° ENE 16:48:09 10° N
Cosmos 1782 Rocket 3.5 16:40:05 10° S 16:44:29 68° E 16:48:54 10° NNE
Cosmos 2278 Rocket 3.1 16:39:51 10° SSE 16:44:32 27° ESE 16:49:10 10° NE
Cosmos 1943 Rocket 3.0 16:40:42 10° SSE 16:45:27 29° ESE 16:50:09 10° NE
Cosmos 407 Rocket 4.2 16:42:05 10° SSE 16:46:41 33° ESE 16:51:16 10° NE
Cosmos 2084 Rocket 3.3 16:42:32 10° SW 16:46:43 86° SE 16:50:44 11° NE
Cosmos 2344 4.4 16:42:04 10° NW 16:48:52 35° NNE 16:56:03 13° E
IRS-1C 4.1 16:44:02 10° SSE 16:49:21 79° ENE 16:54:42 10° NNW
Cosmos 1300 Rocket 3.5 16:47:44 10° S 16:52:08 90° ESE 16:56:32 10° N
ERS-1 4.5 16:49:50 10° SSE 16:54:58 75° ENE 17:00:05 10° NNW
ATLAS 5 CENTAUR R/B 1.9 16:51:06 10° NW 16:55:27 81° SW 17:00:51 10° SE
ATLAS CENTAUR R/B 2.9 16:55:25 10° W 16:58:13 23° NW 17:01:02 10° NNE
Tsikada Rocket 4.2 16:52:03 10° N 16:58:30 84° W 17:04:52 10° S
BREEZE-M DEB (TANK) 2.8 16:59:05 10° SW 17:01:20 53° SE 17:04:22 18° ENE
Cosmos 1975 Rocket 2.9 16:58:32 10° N 17:02:54 82° E 17:07:16 10° S
Spot 4 Rocket 4.4 16:58:31 10° SE 17:03:14 40° ENE 17:07:59 10° N
Cosmos 2016 Rocket 4.5 16:57:04 10° SSW 17:03:18 66° WNW 17:09:40 10° N
SL-16 R/B 3.5 16:58:17 10° N 17:04:18 50° WNW 17:10:16 10° SW
MOS 1 Rocket 3.1 17:01:51 10° SSE 17:06:04 59° ENE 17:10:27 10° N
COSMOS 2406 4.2 17:01:31 10° N 17:06:11 25° NE 17:08:32 19° E
UNK 4.3 17:05:58 10° N 17:10:31 60° WNW 17:15:03 10° SSW
SJ-6F 4.2 17:08:21 10° SSE 17:12:15 87° ENE 17:16:12 10° NNW
COSMO-SKYMED 1 3.3 17:10:37 21° NE 17:12:26 29° E 17:16:02 10° SSE
USA 281 4.1 17:09:14 18° E 17:12:27 27° NE 17:17:44 10° N
SKYMED 2 3.9 17:09:14 10° NNE 17:13:24 42° E 17:17:31 10° S
BREEZE-M DEB (TANK) 2.3 17:12:11 10° WSW 17:14:37 64° SSE 17:17:12 24° E
ISS -2.9 17:12:30 10° SSW 17:15:35 36° SE 17:16:32 29° ESE
CZ-4 R/B 4.3 17:12:23 10° SSE 17:16:18 61° ENE 17:20:14 10° N
CZ-2D R/B 3.8 17:13:37 10° S 17:16:41 47° W 17:19:45 10° NNW
Geosat FO 4.2 17:13:49 10° SSE 17:16:42 74° WSW 17:19:36 10° NNW
Cosmos 1763 Rocket 3.4 17:12:43 10° NNW 17:17:58 78° ENE 17:23:07 10° SSE
Cosmos 540 Rocket 3.4 17:13:28 10° NNW 17:18:37 68° ENE 17:23:41 10° SSE
CZ-4C R/B 3.6 17:15:10 10° W 17:19:17 27° NNW 17:24:07 11° NNE
Cosmos 1833 Rocket 3.8 17:16:13 10° NW 17:21:36 46° WSW 17:26:57 10° S
Cosmos 1140 Rocket 3.8 17:19:11 10° SSW 17:24:19 66° WNW 17:29:29 10° NNE
Helios 1A Rocket 2.9 17:28:22 38° ESE 17:28:22 38° ESE 17:31:18 10° S
NOAA 6 4.3 17:24:09 10° SE 17:28:59 44° ENE 17:33:51 10° N
SL-12 R/B(2) 4.3 17:22:53 10° SSW 17:30:44 73° SE 17:39:17 14° NE
Cosmos 1602 4.0 17:28:34 10° N 17:30:33 34° NNE 17:30:33 34° NNE
RESURS DK-1 2.1 17:27:50 10° NNW 17:31:52 84° ENE 17:35:25 13° SSE
Nadezhda 4 Rocket 4.1 17:26:44 10° N 17:32:54 53° ENE 17:38:59 10° SSE
Cosmos 2251 Rocket 3.7 17:32:17 10° S 17:37:21 50° ESE 17:39:54 28° NE
Cosmos 1862 4.0 17:36:22 10° N 17:38:34 31° NNE 17:38:34 31° NNE
Geosat 4.0 17:41:31 26° SE 17:44:15 60° NE 17:49:12 10° NNW
YAOGAN 1 2.4 17:40:29 10° SSE 17:44:44 77° ENE 17:49:00 10° N
PSLV R/B 3.2 17:41:35 10° SSE 17:45:37 77° ENE 17:49:39 10° N
Timation 2 Rocket 4.1 17:42:29 10° SSW 17:49:22 89° ESE 17:55:09 16° NNE
Resurs 1-3 3.4 17:47:20 10° SSE 17:51:38 84° ENE 17:55:58 10° NNW
CZ-2D R/B 3.8 17:48:25 10° S 17:52:30 65° WSW 17:56:41 10° NNW
Cosmos 1428 Rocket 4.4 17:48:13 10° N 17:54:27 63° ENE 18:00:41 10° SSE
Cosmos 841 Rocket 3.7 17:50:21 10° NNW 17:55:27 47° ENE 17:55:38 47° ENE
Cosmos 489 Rocket 4.4 17:50:33 10° NNW 17:56:48 65° ENE 18:00:28 25° SE
SJ 16-02 2.1 17:54:58 10° S 17:57:46 36° SSE 17:57:46 36° SSE
Okean 2 Rocket 3.3 17:55:00 10° S 17:58:32 51° SE 17:58:32 51° SE
Cosmos 2058 3.1 17:56:49 10° NNW 18:00:45 67° W 18:04:41 10° S
Resurs 01 Rocket 3.1 18:03:53 24° N 18:03:53 24° N 18:05:51 10° N
ATLAS 2AS CENTAUR R/B 3.3 17:58:02 10° NW 18:04:10 34° NNE 18:05:02 33° NE
Cosmos 1536 Rocket 3.5 18:00:09 10° N 18:04:36 86° W 18:09:01 10° S
Cosmos 44 Rocket 3.1 18:01:39 10° SW 18:06:25 85° SE 18:07:12 64° NE
Cosmos 468 Rocket 4.1 18:02:21 10° NNW 18:07:34 75° WSW 18:12:06 13° SSE
SL-19 R/B 4.3 18:03:42 10° S 18:08:54 69° WSW 18:14:07 10° NNW
Cosmos 1812 4.1 18:09:04 10° SW 18:11:01 28° WSW 18:11:01 28° WSW
Meteor 2-1 Rocket 4.4 18:07:02 10° S 18:12:18 54° ESE 18:12:18 54° ESE
Cosmos 1400 Rocket 4.4 18:09:24 10° S 18:10:59 24° S 18:10:59 24° S
Cosmos 1190 Rocket 3.9 18:09:18 10° SSW 18:14:35 85° ESE 18:15:50 54° NNE
Aureole 3 Rocket 4.1 18:13:04 10° SW 18:15:48 30° WNW 18:16:00 29° WNW
Cosmos 1464 Rocket 4.1 18:12:13 10° SSW 18:18:32 78° W 18:24:48 10° N
Cosmos 2082 Rocket 2.5 18:18:27 10° NNW 18:24:00 65° WSW 18:27:17 25° S
Cosmos 2278 Rocket 2.8 18:22:43 10° SW 18:28:15 55° WNW 18:31:01 29° N
Cosmos 1954 Rocket 3.9 18:23:21 10° SSW 18:28:34 88° SSW 18:28:34 88° SSW
Cosmos 1943 Rocket 2.9 18:23:27 10° SW 18:28:55 51° NW 18:31:40 28° N
Cosmos 2034 Rocket 3.9 18:24:06 10° S 18:30:17 89° E 18:36:36 10° N
Cosmos 1092 Rocket 3.9 18:41:14 10° N 18:47:14 82° N 18:47:14 82° N
COSMO-SKYMED 1 4.2 18:46:58 28° NW 18:47:43 30° WNW 18:51:19 10° SW
COSMOS 2406 3.4 18:45:20 10° NNW 18:50:37 69° W 18:50:37 69° W
ISS -0.5 18:48:57 10° W 18:49:28 14° W 18:49:28 14° W
USA 281 3.1 18:56:07 83° SSW 18:56:17 85° WSW 19:02:56 10° NNW
Cosmos 2026 Rocket 4.1 18:50:53 10° NNW 18:56:56 69° W 18:57:33 64° SW
Meteor 2-3 Rocket 4.3 18:57:39 10° NNW 19:03:03 56° W 19:03:03 56° W
Cosmos 2344 3.8 18:56:20 10° NW 19:04:19 89° SW 19:06:07 64° SE
CZ-4C R/B 4.2 19:05:33 10° NW 19:09:03 19° N 19:09:03 19° N
SJ 16-02 4.4 19:34:16 10° WSW 19:34:23 10° WSW 19:34:23 10° WSW
ATLAS 2AS CENTAUR R/B 4.0 19:48:57 10° NW 19:52:28 33° NW 19:52:28 33° NW
